When you browse on this site, cookies collect data to enhance your experience and personalize the content and advertising you see.
Visit our Privacy Policy to learn more. By continuing to use the site, you agree to this use of cookies and data.
  • In Hungary
  • List of Countries
  • For 7 days
  • Water Temperature
  • Weather Map
  • News
  • Weather Widgets
  • user-avatar
    Login

    Hourly Weather Bashmakovo

    Today, 23 January, Thursday

    Time Temperature Precipitation Wind Pressure Humidity
    00:00 -6°C° 0 mm 5 mps 734 mmHg 84%
    01:00 -6°C° 0 mm 6 mps 734 mmHg 83%
    02:00 -6°C° 0 mm 5 mps 735 mmHg 85%
    03:00 -7°C° 0.1 mm 5 mps 735 mmHg 83%
    04:00 -7°C° 0.1 mm 5 mps 735 mmHg 81%
    05:00 -8°C° 0.1 mm 5 mps 736 mmHg 78%
    06:00 -8°C° 0.1 mm 5 mps 736 mmHg 79%
    07:00 -8°C° 0.1 mm 5 mps 737 mmHg 80%
    08:00 -8°C° 0 mm 5 mps 738 mmHg 81%
    09:00 -8°C° 0.1 mm 5 mps 738 mmHg 79%
    10:00 -8°C° 0.1 mm 5 mps 738 mmHg 76%
    11:00 -8°C° 0.1 mm 5 mps 739 mmHg 73%
    12:00 -8°C° 0 mm 5 mps 739 mmHg 69%
    13:00 -7°C° 0 mm 5 mps 740 mmHg 66%
    14:00 -7°C° 0 mm 5 mps 740 mmHg 62%
    15:00 -7°C° 0 mm 5 mps 740 mmHg 69%
    16:00 -8°C° 0 mm 5 mps 741 mmHg 75%
    17:00 -8°C° 0 mm 4 mps 741 mmHg 82%
    18:00 -8°C° 0 mm 4 mps 741 mmHg 81%
    19:00 -7°C° 0 mm 3 mps 742 mmHg 81%
    20:00 -8°C° 0 mm 3 mps 742 mmHg 81%
    21:00 -7°C° 0 mm 3 mps 742 mmHg 81%
    22:00 -7°C° 0 mm 3 mps 742 mmHg 81%
    23:00 -7°C° 0 mm 3 mps 741 mmHg 81%

    Tomorrow, 24 January, Friday

    Time Temperature Precipitation Wind Pressure Humidity
    00:00 -7°C° 0 mm 3 mps 741 mmHg 80%
    01:00 -6°C° 0 mm 3 mps 741 mmHg 80%
    02:00 -6°C° 0 mm 3 mps 741 mmHg 80%
    03:00 -6°C° 0 mm 3 mps 740 mmHg 83%
    04:00 -7°C° 0 mm 4 mps 739 mmHg 87%
    05:00 -5°C° 0 mm 4 mps 738 mmHg 90%
    06:00 -6°C° 0.1 mm 5 mps 737 mmHg 89%
    07:00 -5°C° 0.1 mm 5 mps 737 mmHg 88%
    08:00 -5°C° 0.1 mm 5 mps 736 mmHg 86%
    09:00 -4°C° 0.3 mm 5 mps 735 mmHg 86%
    10:00 -4°C° 0.3 mm 5 mps 735 mmHg 86%
    11:00 -2°C° 0.3 mm 5 mps 734 mmHg 86%
    12:00 -1°C° 0 mm 5 mps 733 mmHg 88%
    13:00 -1°C° 0 mm 4 mps 733 mmHg 90%
    14:00 0°C° 0 mm 4 mps 732 mmHg 93%
    15:00 0°C° 0.2 mm 4 mps 732 mmHg 93%
    16:00 0°C° 0.2 mm 5 mps 731 mmHg 93%
    17:00 +1°C° 0.2 mm 6 mps 730 mmHg 94%
    18:00 +1°C° 0 mm 5 mps 730 mmHg 93%
    19:00 0°C° 0 mm 5 mps 731 mmHg 93%
    20:00 0°C° 0 mm 4 mps 731 mmHg 92%
    21:00 0°C° 0.1 mm 4 mps 731 mmHg 93%
    22:00 -1°C° 0.1 mm 4 mps 731 mmHg 93%
    23:00 0°C° 0.1 mm 3 mps 731 mmHg 93%

    Day after tomorrow, 25 January, Saturday

    Time Temperature Precipitation Wind Pressure Humidity
    00:00 -2°C° 0 mm 4 mps 732 mmHg 91%
    01:00 -2°C° 0 mm 4 mps 732 mmHg 88%
    02:00 -3°C° 0 mm 4 mps 732 mmHg 85%
    03:00 -3°C° 0 mm 4 mps 731 mmHg 86%
    04:00 -4°C° 0 mm 5 mps 731 mmHg 86%
    05:00 -4°C° 0 mm 5 mps 731 mmHg 86%
    06:00 -4°C° 0 mm 5 mps 731 mmHg 87%
    07:00 -4°C° 0 mm 5 mps 731 mmHg 87%
    08:00 -2°C° 0 mm 5 mps 730 mmHg 88%
    09:00 -3°C° 0.2 mm 6 mps 730 mmHg 84%
    10:00 -3°C° 0.2 mm 6 mps 730 mmHg 79%
    11:00 -2°C° 0.2 mm 7 mps 730 mmHg 74%
    12:00 -2°C° 0.1 mm 7 mps 730 mmHg 71%
    13:00 -3°C° 0.1 mm 6 mps 730 mmHg 69%
    14:00 -3°C° 0.1 mm 6 mps 730 mmHg 66%
    15:00 -3°C° 0.1 mm 6 mps 730 mmHg 69%
    16:00 -4°C° 0.1 mm 6 mps 730 mmHg 72%
    17:00 -5°C° 0.1 mm 5 mps 730 mmHg 75%
    18:00 -5°C° 0 mm 6 mps 731 mmHg 76%
    19:00 -5°C° 0 mm 6 mps 732 mmHg 78%
    20:00 -5°C° 0 mm 6 mps 732 mmHg 79%
    21:00 -5°C° 0 mm 6 mps 733 mmHg 80%
    22:00 -5°C° 0 mm 6 mps 733 mmHg 80%
    23:00 -6°C° 0 mm 6 mps 734 mmHg 81%

    26 January, Sunday

    Time Temperature Precipitation Wind Pressure Humidity
    00:00 -6°C° 0 mm 6 mps 734 mmHg 80%
    01:00 -6°C° 0 mm 5 mps 735 mmHg 79%
    02:00 -6°C° 0 mm 5 mps 736 mmHg 79%
    03:00 -6°C° 0 mm 5 mps 737 mmHg 79%
    04:00 -6°C° 0 mm 5 mps 737 mmHg 79%
    05:00 -6°C° 0 mm 5 mps 738 mmHg 79%
    06:00 -7°C° 0 mm 5 mps 739 mmHg 79%
    07:00 -7°C° 0 mm 5 mps 740 mmHg 79%
    08:00 -7°C° 0 mm 4 mps 741 mmHg 80%
    09:00 -5°C° 0 mm 4 mps 742 mmHg 77%
    10:00 -6°C° 0 mm 5 mps 742 mmHg 74%
    11:00 -5°C° 0 mm 5 mps 743 mmHg 72%
    12:00 -4°C° 0 mm 4 mps 744 mmHg 71%
    13:00 -4°C° 0 mm 4 mps 744 mmHg 70%
    14:00 -4°C° 0 mm 4 mps 744 mmHg 70%
    15:00 -4°C° 0 mm 3 mps 745 mmHg 74%
    16:00 -5°C° 0 mm 3 mps 745 mmHg 78%
    17:00 -5°C° 0 mm 3 mps 745 mmHg 82%
    18:00 -4°C° 0 mm 2 mps 745 mmHg 82%
    19:00 -4°C° 0 mm 2 mps 745 mmHg 83%
    20:00 -4°C° 0 mm 2 mps 745 mmHg 83%
    21:00 -4°C° 0 mm 2 mps 745 mmHg 85%
    22:00 -4°C° 0 mm 2 mps 745 mmHg 86%
    23:00 -3°C° 0 mm 2 mps 745 mmHg 88%

    27 January, Monday

    Time Temperature Precipitation Wind Pressure Humidity
    00:00 -3°C° 0.2 mm 2 mps 744 mmHg 91%
    01:00 -3°C° 0.2 mm 2 mps 744 mmHg 94%
    02:00 -4°C° 0.2 mm 3 mps 744 mmHg 97%
    03:00 -2°C° 0.3 mm 3 mps 744 mmHg 97%
    04:00 -1°C° 0.3 mm 3 mps 744 mmHg 97%
    05:00 0°C° 0.3 mm 3 mps 743 mmHg 97%
    06:00 0°C° 0.3 mm 3 mps 743 mmHg 97%
    07:00 0°C° 0.3 mm 3 mps 743 mmHg 96%
    08:00 0°C° 0.3 mm 4 mps 743 mmHg 95%
    09:00 0°C° 0 mm 4 mps 743 mmHg 96%
    10:00 0°C° 0 mm 4 mps 743 mmHg 96%
    11:00 0°C° 0 mm 4 mps 743 mmHg 96%
    12:00 0°C° 0 mm 4 mps 743 mmHg 96%
    13:00 -1°C° 0 mm 4 mps 743 mmHg 95%
    14:00 -1°C° 0 mm 4 mps 743 mmHg 95%
    15:00 -1°C° 0 mm 4 mps 742 mmHg 94%
    16:00 -1°C° 0 mm 4 mps 742 mmHg 93%
    17:00 -1°C° 0 mm 4 mps 742 mmHg 92%
    18:00 -2°C° 0 mm 4 mps 742 mmHg 92%
    19:00 -2°C° 0 mm 4 mps 742 mmHg 92%
    20:00 -2°C° 0 mm 4 mps 742 mmHg 92%
    21:00 -2°C° 0 mm 3 mps 742 mmHg 92%
    22:00 -2°C° 0 mm 3 mps 742 mmHg 91%
    23:00 -2°C° 0 mm 3 mps 741 mmHg 91%

    28 January, Tuesday

    Time Temperature Precipitation Wind Pressure Humidity
    00:00 -2°C° 0 mm 3 mps 741 mmHg 92%
    01:00 -2°C° 0 mm 2 mps 741 mmHg 93%
    02:00 -2°C° 0 mm 2 mps 740 mmHg 95%
    03:00 -2°C° 0.1 mm 2 mps 740 mmHg 95%
    04:00 -2°C° 0.1 mm 2 mps 739 mmHg 96%
    05:00 -2°C° 0.1 mm 2 mps 739 mmHg 97%
    06:00 -2°C° 0.2 mm 2 mps 739 mmHg 97%
    07:00 -2°C° 0.2 mm 2 mps 738 mmHg 97%
    08:00 -2°C° 0.2 mm 2 mps 738 mmHg 97%
    09:00 -2°C° 0.1 mm 3 mps 738 mmHg 97%
    10:00 -1°C° 0.1 mm 3 mps 738 mmHg 96%
    11:00 -1°C° 0.1 mm 3 mps 737 mmHg 96%
    12:00 -1°C° 0.1 mm 3 mps 737 mmHg 96%
    13:00 -1°C° 0.1 mm 3 mps 736 mmHg 97%
    14:00 -1°C° 0.1 mm 3 mps 736 mmHg 97%
    15:00 -1°C° 0 mm 3 mps 736 mmHg 97%
    16:00 0°C° 0 mm 3 mps 736 mmHg 97%
    17:00 0°C° 0 mm 3 mps 735 mmHg 97%
    18:00 0°C° 0 mm 3 mps 735 mmHg 97%
    19:00 0°C° 0 mm 3 mps 735 mmHg 97%
    20:00 +1°C° 0 mm 3 mps 734 mmHg 97%
    21:00 0°C° 0 mm 4 mps 734 mmHg 96%
    22:00 0°C° 0 mm 4 mps 733 mmHg 96%
    23:00 0°C° 0 mm 4 mps 733 mmHg 95%
    Show more